Regional Weather Roundup
Issued by NWS

Home | Current Version | Previous Version | Text Only | Print | Product List | Glossary On
Versions: 1 2 3 4 5 6 7 8 9 10 11 12 13 14 15 16 17 18 19 20 21 22 23 24 25 26 27 28 29 30 31 32 33 34 35 36 37 38 39 40 41 42 43 44 45 46 47 48 49 50
000
ASUS43 KDTX 010410
RWRMI
MICHIGAN HOURLY REGIONAL WEATHER ROUNDUP
NATIONAL WEATHER SERVICE DETROIT/PONTIAC MI
1200 AM EDT FRI AUG 01 2014

NOTE: "FAIR" INDICATES FEW OR NO CLOUDS BELOW 12,000 FEET WITH NO
SIGNIFICANT WEATHER AND/OR OBSTRUCTION TO VISIBILITY.

MIZ047>049-052>055-059>063-066>070-074>076-081>083-010500-
SOUTHEAST LOWER MICHIGAN

CITY           SKY/WX    TMP DP  RH WIND       PRES   REMARKS
ADRIAN         CLEAR     64  58  80 CALM      30.08R
ALMA           CLEAR     63  60  87 SW3       30.03S
ANN ARBOR      CLEAR     60  57  89 CALM      30.06S
BAD AXE        CLEAR     59  59  99 CALM      30.03R
CARO           CLEAR     60  60  97 CALM      30.03S
DETROIT CITY   CLEAR     72  58  61 SW5       30.05R
DETROIT        PTCLDY    68  59  73 SW3       30.06R
FLINT          PTCLDY    60  56  86 S3        30.04S
GROSSE ILE     CLEAR     70  61  73 CALM      30.05R
HILLSDALE      PTCLDY    60  59  96 CALM      30.08S
HOWELL         CLEAR     64  59  85 S5        30.06R

CITY           SKY/WX    TMP DP  RH WIND       PRES   REMARKS
JACKSON        CLEAR     62  58  86 S3        30.06S
LAMBERTVILLE   CLEAR     63  61  94 CALM      30.07S
LANSING        PTCLDY    66  58  75 CALM      30.05S
LAPEER         FAIR      57  56  95 CALM      30.05R FOG
MASON          MOCLDY   N/A N/A N/A S3        30.06S
MONROE         CLEAR     64  59  82 CALM      30.05S
MT. CLEMENS    CLEAR     62  58  87 N3        30.04R
PONTIAC        MOCLDY    65  59  81 SW3       30.05S
PORT HOPE        N/A     63  57  81 SW3       29.99S
PORT HURON     FOG       55  55 100 CALM      30.05R VSB 1/4
TRI CITIES     PTCLDY    66  60  81 SW5       30.03S
TROY           PTCLDY    68  58  70 W3        30.06S
SAGINAW HB     PTCLDY    64  63  94 SW5       30.02S
$$
MIZ043>046-050>051-056>058-064>065-071>073-077>080-010500-
SOUTHWEST LOWER MICHIGAN

CITY           SKY/WX    TMP DP  RH WIND       PRES   REMARKS
BATTLE CREEK   PTCLDY    65  58  78 S6        30.06S
BENTON HARBOR  CLEAR     63  60  90 CALM      30.04S
BIG RAPIDS     PTCLDY    62  62 100 CALM      30.02R
COLDWATER      CLEAR     66  60  81 S3        30.07S
FREMONT        MOCLDY    64  62  94 CALM      30.01S
HOLLAND        CLEAR     69  58  67 SW6       30.03S
GRAND RAPIDS   MOCLDY    67  61  81 S7        30.03S
IONIA          MOCLDY    62  59  88 S3        30.03R
KALAMAZOO      PTCLDY    65  59  81 S6        30.05F
LUDINGTON      MOCLDY    64  59  81 S3        30.01R
MARSHALL       PTCLDY    60  58  94 CALM      30.06S
MOUNT PLEASANT PTCLDY    67  60  78 SW5       30.02R
MUSKEGON       PTCLDY    68  57  68 W3        30.02R
SOUTH HAVEN    CLEAR     61  61  99 CALM      30.04S
$$
MIZ016>042-010500-
NORTHERN LOWER MICHIGAN

CITY           SKY/WX    TMP DP  RH WIND       PRES   REMARKS
ALPENA         PTCLDY    59  56  89 CALM      30.01R
BEAVER ISLAND  CLEAR     59  59 100 CALM      29.98F FOG
BELLAIRE       CLEAR     57  55  92 CALM      29.99S
CADILLAC       CLEAR     54  53  94 CALM      30.02S
CHARLEVOIX     CLEAR     62  61  95 W3        30.02S
FRANKFORT      CLEAR     67  57  69 CALM      29.99S
GAYLORD        CLEAR     58  53  84 CALM      30.02R
GRAYLING       PTCLDY    55  55  98 CALM      30.02S
HARBOR SPRINGS MOCLDY    62  57  84 CALM      29.99S
HOUGHTON LAKE  CLEAR     55  53  93 CALM      30.02S
MANISTEE       PTCLDY    57  55  94 E3        30.00S
OSCODA         CLEAR     60  56  89 CALM      29.99S
PELLSTON       CLOUDY    59  56  89 CALM      29.99S
ROGERS CITY    PTCLDY    56  56 100 CALM      30.01S
TRAVERSE CITY  CLEAR     64  57  78 S3        29.97F
$$
MIZ007>008-015-010500-
EASTERN UPPER MICHIGAN

CITY           SKY/WX    TMP DP  RH WIND       PRES   REMARKS
KINROSS        CLEAR     55  54  94 CALM      29.98S
MACKINAC ISLAN CLEAR     60  59  97 W6        29.98F
NEWBERRY       CLEAR     49  47  90 CALM      29.99R
S. S. MARIE    CLEAR     53  49  86 CALM      29.98R
MUNISING         N/A     56  51  84 S9        29.97S
$$
MIZ004>006-011>014-085-010500-
CENTRAL UPPER MICHIGAN

CITY           SKY/WX    TMP DP  RH WIND       PRES   REMARKS
MANISTIQUE     CLEAR     51  50  98 CALM      29.98S
ESCANABA       CLEAR     55  50  82 CALM      29.98S
MENOMINEE      CLEAR     63  54  72 E5        29.97S
SAWYER-GWINN   CLEAR     55  50  83 CALM      29.99F
$$
MIZ001>003-009>011-084-010500-
WESTERN UPPER MICHIGAN

CITY           SKY/WX    TMP DP  RH WIND       PRES   REMARKS
IRON MOUNTAIN  PTCLDY    55  51  86 CALM      29.98S
HOUGHTON       CLEAR     57  49  74 NW7       29.96S
COPPER HARBOR    N/A     55  48  77 SW6       29.98R
$$

ABBREVIATIONS USED IN REMARKS
   TC - TEMPERATURE IN CELSIUS
  WCI - WIND CHILL INDEX
   HX - HEAT INDEX
  VSB - VISIBILITY




USA.gov is the U.S. government's official web portal to all federal, state and local government web resources and services.